Weather History for KI39 - April, 2014

Change the Weather History Date:

Tuesday, April 8, 2014

  Actual Average (KLOZ) Record (KLOZ)
Temperature  
Mean Temperature 50 °F 54 °F  
Max Temperature 59 °F 66 °F 86 °F (2001)
Min Temperature 42 °F 42 °F 19 °F (2007)
Degree Days  
Heating Degree Days 14 11  
Month to date heating degree days 97  
Since 1 July heating degree days 3922  
Cooling Degree Days 0 0  
Month to date cooling degree days 0  
Year to date cooling degree days 3  
Moisture  
Dew Point 40 °F    
Average Humidity 69    
Maximum Humidity 87    
Minimum Humidity 45    
Precipitation  
Precipitation 0.00 in 0.13 in 1.92 in (1957)
Month to date precipitation 1.02  
Year to date precipitation 12.32  
Sea Level Pressure  
Sea Level Pressure 29.76 in    
Wind  
Wind Speed 11 mph (West)    
Max Wind Speed 21 mph    
Max Gust Speed 30 mph    
Visibility 10 miles    
Events      
T = Trace of Precipitation, MM = Missing Value Source: NWS Daily Summary

Daily Weather History Graph

Daily Weather History Graph

Search for Another Location

Airport or City:

Trip Planner

Search our weather history database for the weather conditions in past years. The results will help you decide how hot, cold, wet, or windy it might be!

Date:

Astronomy

Apr. 08, 2014 Rise Set
Actual Time 7:12 AM EDT 8:06 PM EDT
Civil Twilight 6:45 AM EDT 8:33 PM EDT
Nautical Twilight 6:14 AM EDT 9:04 PM EDT
Astronomical Twilight 5:41 AM EDT 9:37 PM EDT
Moon 2:05 PM EDT (4/8) 3:17 AM EDT (4/8)
Length of Visible Light 13h 47m
Length of Day
12h 54m
Waxing Gibbous, 62% of the Moon is Illuminated
Apr 8
Waxing Gibbous
Apr 15
Full
Apr 22
Last Quarter
Apr 29
New
May 6
First Quarter

Hourly Weather History & Observations

Time (EDT) Temp. Windchill Dew Point Humidity Pressure Visibility Wind Dir Wind Speed Gust Speed Precip Events Conditions
12:15 AM 46.4 °F 38.7 °F 39.2 °F 76% 29.67 in 10.0 mi WSW 20.7 mph 29.9 mph N/A   Overcast
12:35 AM 46.4 °F 39.2 °F 39.2 °F 76% 29.68 in 10.0 mi WSW 18.4 mph 29.9 mph N/A   Overcast
12:55 AM 46.4 °F 39.5 °F 39.2 °F 76% 29.69 in 10.0 mi WSW 17.3 mph 28.8 mph N/A   Overcast
1:15 AM 46.4 °F 38.7 °F 39.2 °F 76% 29.70 in 10.0 mi WSW 20.7 mph 28.8 mph N/A   Overcast
1:35 AM 46.4 °F 39.2 °F 39.2 °F 76% 29.71 in 10.0 mi West 18.4 mph 27.6 mph N/A   Overcast
1:55 AM 44.6 °F 36.4 °F 39.2 °F 81% 29.71 in 10.0 mi West 20.7 mph 25.3 mph N/A   Overcast
2:15 AM 44.6 °F 38.4 °F 39.2 °F 81% 29.72 in 10.0 mi West 12.7 mph - N/A   Overcast
2:35 AM 44.6 °F 38.1 °F 39.2 °F 81% 29.72 in 10.0 mi West 13.8 mph 18.4 mph N/A   Overcast
2:55 AM 44.6 °F 38.4 °F 39.2 °F 81% 29.72 in 10.0 mi West 12.7 mph - N/A   Overcast
3:15 AM 44.6 °F 37.8 °F 39.2 °F 81% 29.73 in 10.0 mi West 15.0 mph 24.2 mph N/A   Overcast
3:35 AM 44.6 °F 38.4 °F 41.0 °F 87% 29.73 in 10.0 mi West 12.7 mph 19.6 mph N/A   Overcast
3:55 AM 44.6 °F 36.9 °F 39.2 °F 81% 29.73 in 10.0 mi West 18.4 mph 21.9 mph N/A   Overcast
4:15 AM 44.6 °F 38.4 °F 39.2 °F 81% 29.73 in 10.0 mi West 12.7 mph 17.3 mph N/A   Overcast
4:35 AM 42.8 °F 37.5 °F 39.2 °F 87% 29.73 in 7.0 mi West 9.2 mph - N/A   Overcast
4:55 AM 44.6 °F 39.2 °F 39.2 °F 81% 29.73 in 10.0 mi West 10.4 mph - N/A   Overcast
5:15 AM 44.6 °F 38.8 °F 39.2 °F 81% 29.73 in 10.0 mi West 11.5 mph - N/A   Overcast
5:35 AM 44.6 °F 39.7 °F 39.2 °F 81% 29.74 in 10.0 mi West 9.2 mph - N/A   Overcast
5:55 AM 44.6 °F 41.4 °F 39.2 °F 81% 29.75 in 10.0 mi West 5.8 mph - N/A   Overcast
6:15 AM 44.6 °F 40.7 °F 39.2 °F 81% 29.74 in 10.0 mi West 6.9 mph - N/A   Overcast
6:35 AM 44.6 °F 41.4 °F 39.2 °F 81% 29.75 in 10.0 mi West 5.8 mph - N/A   Overcast
6:55 AM 44.6 °F 40.7 °F 39.2 °F 81% 29.76 in 10.0 mi West 6.9 mph - N/A   Overcast
7:15 AM 44.6 °F 40.7 °F 39.2 °F 81% 29.76 in 10.0 mi West 6.9 mph - N/A   Overcast
7:35 AM 44.6 °F 40.7 °F 39.2 °F 81% 29.76 in 10.0 mi WSW 6.9 mph - N/A   Overcast
7:55 AM 42.8 °F 38.6 °F 39.2 °F 87% 29.77 in 10.0 mi West 6.9 mph - N/A   Mostly Cloudy
8:15 AM 44.6 °F 42.2 °F 39.2 °F 81% 29.78 in 10.0 mi West 4.6 mph - N/A   Mostly Cloudy
8:35 AM 44.6 °F 41.4 °F 39.2 °F 81% 29.78 in 10.0 mi WSW 5.8 mph - N/A   Overcast
8:55 AM 44.6 °F 41.4 °F 41.0 °F 87% 29.78 in 10.0 mi WSW 5.8 mph - N/A   Overcast
9:15 AM 46.4 °F 42.4 °F 41.0 °F 81% 29.79 in 10.0 mi WSW 8.1 mph - N/A   Overcast
9:35 AM 46.4 °F 41.5 °F 39.2 °F 76% 29.79 in 10.0 mi WSW 10.4 mph - N/A   Scattered Clouds
9:55 AM 46.4 °F 41.9 °F 39.2 °F 76% 29.79 in 10.0 mi WSW 9.2 mph - N/A   Scattered Clouds
10:15 AM 48.2 °F - 39.2 °F 71% 29.79 in 10.0 mi WSW 8.1 mph - N/A   Mostly Cloudy
10:35 AM 50.0 °F - 41.0 °F 71% 29.79 in 10.0 mi WSW 5.8 mph - N/A   Scattered Clouds
10:55 AM 50.0 °F - 39.2 °F 66% 29.79 in 10.0 mi West 8.1 mph - N/A   Mostly Cloudy
11:15 AM 51.8 °F - 41.0 °F 67% 29.80 in 10.0 mi WSW 8.1 mph - N/A   Scattered Clouds
11:35 AM 51.8 °F - 41.0 °F 67% 29.80 in 10.0 mi WSW 8.1 mph - N/A   Mostly Cloudy
11:55 AM 53.6 °F - 41.0 °F 62% 29.79 in 10.0 mi West 5.8 mph - N/A   Mostly Cloudy
12:15 PM 53.6 °F - 41.0 °F 62% 29.79 in 10.0 mi WNW 3.5 mph - N/A   Mostly Cloudy
12:35 PM 53.6 °F - 41.0 °F 62% 29.79 in 10.0 mi WSW 4.6 mph - N/A   Scattered Clouds
12:55 PM 55.4 °F - 41.0 °F 58% 29.78 in 10.0 mi WSW 5.8 mph - N/A   Mostly Cloudy
1:15 PM 55.4 °F - 41.0 °F 58% 29.78 in 10.0 mi West 6.9 mph - N/A   Mostly Cloudy
1:35 PM 55.4 °F - 39.2 °F 54% 29.77 in 10.0 mi WNW 8.1 mph - N/A   Overcast
1:55 PM 55.4 °F - 39.2 °F 54% 29.77 in 10.0 mi Calm Calm - N/A   Mostly Cloudy
2:15 PM 57.2 °F - 39.2 °F 51% 29.76 in 10.0 mi Calm Calm - N/A   Mostly Cloudy
2:35 PM 57.2 °F - 39.2 °F 51% 29.76 in 10.0 mi NW 6.9 mph - N/A   Mostly Cloudy
2:55 PM 57.2 °F - 39.2 °F 51% 29.75 in 10.0 mi West 6.9 mph - N/A   Mostly Cloudy
3:15 PM 57.2 °F - 39.2 °F 51% 29.75 in 10.0 mi WNW 9.2 mph 24.2 mph N/A   Overcast
3:35 PM 57.2 °F - 37.4 °F 48% 29.74 in 10.0 mi West 9.2 mph - N/A   Mostly Cloudy
3:55 PM 59.0 °F - 39.2 °F 48% 29.73 in 10.0 mi West 12.7 mph - N/A   Mostly Cloudy
4:15 PM 57.2 °F - 39.2 °F 51% 29.73 in 10.0 mi West 9.2 mph - N/A   Scattered Clouds
4:35 PM 59.0 °F - 39.2 °F 48% 29.73 in 10.0 mi West 8.1 mph 17.3 mph N/A   Mostly Cloudy
4:55 PM 59.0 °F - 39.2 °F 48% 29.72 in 10.0 mi West 8.1 mph - N/A   Scattered Clouds
5:15 PM 59.0 °F - 37.4 °F 45% 29.72 in 10.0 mi WNW 10.4 mph - N/A   Clear
5:35 PM 59.0 °F - 37.4 °F 45% 29.72 in 10.0 mi NW 6.9 mph - N/A   Scattered Clouds
5:55 PM 59.0 °F - 37.4 °F 45% 29.72 in 10.0 mi WSW 3.5 mph - N/A   Mostly Cloudy
6:15 PM 59.0 °F - 37.4 °F 45% 29.73 in 10.0 mi NW 4.6 mph - N/A   Scattered Clouds
6:35 PM 59.0 °F - 37.4 °F 45% 29.73 in 10.0 mi NW 3.5 mph - N/A   Mostly Cloudy
6:55 PM 57.2 °F - 37.4 °F 48% 29.73 in 10.0 mi Calm Calm - N/A   Mostly Cloudy
7:15 PM 57.2 °F - 39.2 °F 51% 29.74 in 10.0 mi NW 3.5 mph - N/A   Overcast
7:35 PM 57.2 °F - 39.2 °F 51% 29.74 in 10.0 mi WNW 5.8 mph - N/A   Mostly Cloudy
7:55 PM 55.4 °F - 39.2 °F 54% 29.75 in 10.0 mi WNW 4.6 mph - N/A   Clear
8:15 PM 55.4 °F - 39.2 °F 54% 29.75 in 10.0 mi WNW 4.6 mph - N/A   Clear
8:35 PM 53.6 °F - 39.2 °F 58% 29.76 in 10.0 mi West 3.5 mph - N/A   Scattered Clouds
8:55 PM 53.6 °F - 39.2 °F 58% 29.76 in 10.0 mi West 4.6 mph - N/A   Overcast
9:15 PM 53.6 °F - 42.8 °F 67% 29.78 in 10.0 mi WNW 16.1 mph 24.2 mph N/A   Overcast
9:35 PM 50.0 °F - 44.6 °F 82% 29.81 in 7.0 mi NW 11.5 mph - N/A   Overcast
9:55 PM 48.2 °F - 44.6 °F 87% 29.82 in 4.0 mi NW 6.9 mph - N/A   Overcast
10:15 PM 48.2 °F - 44.6 °F 87% 29.83 in 5.0 mi Calm Calm - N/A   Overcast
10:35 PM 48.2 °F - 44.6 °F 87% 29.83 in 10.0 mi Calm Calm - N/A   Overcast
10:55 PM 48.2 °F - 44.6 °F 87% 29.83 in 10.0 mi Calm Calm - N/A   Overcast
11:15 PM 48.2 °F - 44.6 °F 87% 29.83 in 10.0 mi WSW 3.5 mph - N/A   Overcast
11:35 PM 48.2 °F - 44.6 °F 87% 29.84 in 10.0 mi Calm Calm - N/A   Overcast
11:55 PM 48.2 °F - 44.6 °F 87% 29.84 in 10.0 mi Calm Calm - N/A   Overcast